period_start,C,m1,H,J0,J1,J2,J3,J4,J5,JA,JB,JC,JD,JJ,JK,JN,#
2018-04-29 00:02:18,0.08,3.79,0.00,24.99,28.27,31.23,13.85,47.54,1015.64,2018.98,2201.43,2198.74,2500.65,600.11,591.48,36.00,0000 0000 0000 0000 000000
2018-04-29 00:07:19,0.07,3.79,0.00,25.06,28.29,31.21,13.77,47.52,1015.64,2018.96,2200.40,2197.95,2499.70,599.93,591.27,36.06,0000 0000 0000 0000 000000
2018-04-29 00:12:20,0.09,3.80,0.00,25.08,28.31,31.26,13.83,47.48,1015.65,2018.95,2199.31,2197.07,2498.76,600.14,591.46,36.11,0000 0000 0000 0000 000000
2018-04-29 00:17:22,0.08,3.80,0.00,25.11,28.33,31.26,13.82,47.58,1015.65,2018.87,2198.30,2196.22,2497.80,599.86,591.15,36.16,0000 0000 0000 0000 000000
2018-04-29 00:22:23,0.07,3.81,0.00,25.18,28.35,31.28,13.88,47.42,1015.65,2018.63,2197.25,2195.42,2496.81,600.42,591.41,36.21,0000 0000 0000 0000 000000
2018-04-29 00:27:24,0.04,3.81,0.00,25.20,28.37,31.32,13.81,47.42,1015.66,2018.28,2196.08,2194.55,2495.84,599.97,591.03,36.26,0000 0000 0000 0000 000000
2018-04-29 00:32:25,0.08,3.81,0.00,25.18,28.40,31.33,13.87,47.41,1015.66,2018.17,2194.93,2193.75,2494.93,600.09,591.14,36.31,0000 0000 0000 0000 000000
2018-04-29 00:37:27,0.07,3.82,0.00,25.23,28.42,31.37,13.81,47.45,1015.68,2018.03,2193.88,2192.93,2493.99,600.08,591.02,36.36,0000 0000 0000 0000 000000
2018-04-29 00:42:28,0.08,3.82,0.00,25.29,28.45,31.40,13.75,47.40,1015.67,2018.02,2192.86,2192.09,2493.00,599.66,590.57,36.41,0000 0000 0000 0000 000000
2018-04-29 00:47:29,0.10,3.83,0.00,25.30,28.47,31.39,13.75,47.39,1015.69,2018.00,2191.79,2191.20,2492.00,599.88,590.71,36.46,0000 0000 0000 0000 000000
2018-04-29 00:52:31,0.10,3.83,0.00,25.36,28.50,31.42,13.73,47.38,1015.69,2018.00,2190.61,2190.26,2490.95,599.94,590.72,36.51,0000 0000 0000 0000 000000
2018-04-29 00:57:32,0.09,3.84,0.00,25.41,28.53,31.44,13.81,47.39,1015.71,2017.99,2189.60,2189.51,2489.97,600.09,590.80,36.56,0000 0000 0000 0000 000000
2018-04-29 01:02:33,0.09,3.84,0.00,25.40,28.56,31.47,13.78,47.39,1015.78,2017.97,2188.44,2188.61,2488.94,599.84,590.61,36.61,0000 0000 0000 0000 000000
2018-04-29 01:07:34,0.08,3.85,0.00,25.42,28.58,31.50,13.73,47.39,1015.84,2017.90,2187.41,2187.72,2487.87,599.76,590.67,36.66,0000 0000 0000 0000 000000
2018-04-29 01:12:35,0.06,3.85,0.00,25.50,28.61,31.53,13.75,47.23,1016.08,2017.64,2186.10,2186.83,2486.84,600.23,590.89,36.71,0000 0000 0000 0000 000000
2018-04-29 01:17:36,0.04,3.85,0.00,25.51,28.64,31.57,13.78,47.40,1016.10,2017.16,2185.05,2185.91,2485.79,600.25,590.94,36.76,0000 0000 0000 0000 000000
2018-04-29 01:22:37,0.09,3.86,0.00,25.56,28.67,31.59,13.84,47.35,1016.13,2017.03,2183.92,2185.02,2484.70,600.04,590.68,36.81,0000 0000 0000 0000 000000
2018-04-29 01:27:38,0.09,3.86,0.00,25.57,28.70,31.60,13.84,47.33,1016.13,2017.00,2182.83,2184.12,2483.68,600.28,590.90,36.86,0000 0000 0000 0000 000000
2018-04-29 01:32:40,0.10,3.87,0.00,25.51,28.72,31.63,13.73,47.38,1016.13,2017.00,2181.69,2183.20,2482.68,600.04,590.70,36.91,0000 0000 0000 0000 000000
2018-04-29 01:37:41,0.11,3.87,0.00,25.50,28.76,31.67,13.78,47.28,1016.13,2017.00,2180.49,2182.33,2481.59,599.85,590.51,36.96,0000 0000 0000 0000 000000
2018-04-29 01:42:42,0.10,3.88,0.00,25.53,28.78,31.70,13.78,47.29,1016.13,2017.00,2179.34,2181.43,2480.53,600.16,590.87,37.01,0000 0000 0000 0000 000000
2018-04-29 01:47:43,0.09,3.88,0.00,25.52,28.81,31.71,13.86,47.54,1016.13,2016.99,2178.21,2180.56,2479.52,599.90,590.69,37.07,0000 0000 0000 0000 000000
2018-04-29 01:52:45,0.08,3.89,0.00,25.55,28.83,31.75,13.70,47.35,1016.13,2016.94,2177.10,2179.71,2478.49,599.94,590.63,37.12,0000 0000 0000 0000 000000
2018-04-29 01:57:46,0.07,3.89,0.00,25.57,28.85,31.77,13.83,47.41,1016.13,2016.72,2175.79,2178.80,2477.39,599.81,590.43,37.17,0000 0000 0000 0000 000000
2018-04-29 02:02:47,0.04,3.89,0.00,25.57,28.88,31.78,13.83,47.41,1016.13,2016.35,2174.87,2177.88,2476.38,599.89,590.59,37.22,0000 0000 0000 0000 000000
2018-04-29 02:07:48,0.10,3.90,0.00,25.60,28.90,31.79,13.82,47.53,1016.13,2016.25,2173.69,2176.97,2475.29,599.80,590.40,37.27,0000 0000 0000 0000 000000
2018-04-29 02:12:49,0.09,3.90,0.00,25.65,28.92,31.82,13.81,47.43,1016.13,2016.06,2172.41,2176.01,2474.13,599.79,590.27,37.32,0000 0000 0000 0000 000000
2018-04-29 02:17:51,0.09,3.91,0.00,25.62,28.95,31.83,13.86,47.52,1016.13,2016.02,2171.37,2175.10,2473.13,600.27,590.82,37.37,0000 0000 0000 0000 000000
2018-04-29 02:22:52,0.10,3.91,0.00,25.64,28.96,31.86,13.83,47.52,1016.13,2016.01,2170.25,2174.38,2472.11,599.71,590.25,37.42,0000 0000 0000 0000 000000
2018-04-29 02:27:54,0.10,3.92,0.00,25.65,28.97,31.92,13.84,47.50,1016.13,2016.01,2169.12,2173.50,2471.09,600.39,590.95,37.47,0000 0000 0000 0000 000000
2018-04-29 02:32:55,0.10,3.92,0.00,25.63,29.00,31.89,13.78,47.35,1016.13,2016.00,2167.91,2172.56,2469.97,600.66,591.17,37.52,0000 0000 0000 0000 000000
2018-04-29 02:37:56,0.10,3.93,0.00,25.63,29.00,31.91,13.78,47.41,1016.13,2016.00,2166.73,2171.74,2468.94,599.98,590.41,37.57,0000 0000 0000 0000 000000
2018-04-29 02:42:58,0.11,3.93,0.00,25.66,29.02,31.93,13.97,47.36,1016.13,2016.00,2165.29,2170.78,2467.84,600.49,590.89,37.62,0000 0000 0000 0000 000000
2018-04-29 02:47:59,0.09,3.94,0.00,25.60,29.02,31.93,13.86,47.24,1016.13,2016.00,2164.12,2169.91,2466.78,600.38,590.87,37.67,0000 0000 0000 0000 000000
2018-04-29 02:53:00,0.10,3.94,0.00,25.63,29.02,31.95,13.73,47.27,1016.13,2016.00,2163.06,2169.02,2465.76,600.30,590.85,37.72,0000 0000 0000 0000 000000
2018-04-29 02:58:02,0.10,3.95,0.00,25.58,29.01,32.02,13.73,47.30,1016.14,2016.00,2161.79,2168.11,2464.68,599.76,590.38,37.77,0000 0000 0000 0000 000000
2018-04-29 03:03:03,0.10,3.95,0.00,25.44,29.00,32.08,13.78,47.26,1016.13,2016.00,2160.51,2167.33,2463.67,599.88,590.80,37.82,0000 0000 0000 0000 000000
2018-04-29 03:08:05,0.09,3.96,0.00,25.44,28.97,32.07,13.81,47.51,1016.13,2016.00,2159.37,2166.44,2462.71,600.04,590.88,37.87,0000 0000 0000 0000 000000
2018-04-29 03:13:06,0.08,3.96,0.00,25.38,28.95,32.00,13.86,47.53,1016.13,2016.00,2158.20,2165.76,2461.75,599.69,590.69,37.92,0000 0000 0000 0000 000000
2018-04-29 03:18:07,0.08,3.97,0.00,25.32,28.91,31.91,13.80,47.51,1016.13,2016.00,2157.11,2164.98,2460.87,599.82,590.94,37.98,0000 0000 0000 0000 000000
2018-04-29 03:23:09,0.09,3.97,0.00,25.40,28.89,31.85,13.80,47.38,1016.13,2016.02,2156.12,2164.15,2460.00,599.60,590.59,38.03,0000 0000 0000 0000 000000
2018-04-29 03:28:10,0.10,3.98,0.00,25.40,28.85,31.78,13.81,47.42,1016.13,2016.09,2155.07,2163.40,2459.10,599.91,590.89,38.08,0000 0000 0000 0000 000000
2018-04-29 03:33:11,0.13,3.98,0.00,25.32,28.82,31.70,13.78,47.48,1016.13,2016.47,2153.98,2162.79,2458.17,599.77,590.94,38.13,0000 0000 0000 0000 000000
2018-04-29 03:38:12,0.11,3.99,0.00,25.39,28.79,31.64,13.74,47.51,1016.13,2016.87,2153.01,2162.01,2457.35,599.54,590.63,38.18,0000 0000 0000 0000 000000
2018-04-29 03:43:14,0.11,4.00,0.00,25.44,28.76,31.58,13.72,47.33,1016.13,2016.96,2151.86,2161.20,2456.45,599.38,590.29,38.23,0000 0000 0000 0000 000000
2018-04-29 03:48:15,0.08,4.00,0.00,25.36,28.72,31.50,13.85,47.46,1016.13,2016.99,2150.90,2160.60,2455.68,599.94,590.99,38.28,0000 0000 0000 0000 000000
2018-04-29 03:53:16,0.07,4.00,0.00,25.44,28.69,31.50,13.76,47.41,1016.13,2016.99,2149.80,2159.89,2454.74,599.90,590.80,38.33,0000 0000 0000 0000 000000
2018-04-29 03:58:17,0.10,4.01,0.00,25.51,28.66,31.48,13.86,47.53,1016.13,2016.99,2148.69,2159.03,2453.77,600.23,590.97,38.38,0000 0000 0000 0000 000000
2018-04-29 04:03:19,0.09,4.01,0.00,25.46,28.64,31.48,13.75,47.37,1016.13,2017.00,2147.65,2158.18,2452.92,599.81,590.75,38.43,0000 0000 0000 0000 000000
2018-04-29 04:08:20,0.10,4.02,0.00,25.50,28.61,31.50,13.88,47.25,1016.14,2017.06,2146.36,2157.46,2451.98,600.26,591.12,38.48,0000 0000 0000 0000 000000
2018-04-29 04:13:21,0.10,4.03,0.00,25.61,28.60,31.49,13.72,47.28,1016.13,2017.18,2145.26,2156.80,2451.06,599.74,590.27,38.53,0000 0000 0000 0000 000000
2018-04-29 04:18:22,0.10,4.03,0.00,25.56,28.57,31.48,13.80,47.41,1016.13,2017.36,2144.45,2155.94,2450.19,600.02,590.65,38.58,0000 0000 0000 0000 000000
2018-04-29 04:23:23,0.13,4.04,0.00,25.57,28.56,31.41,13.75,47.36,1016.13,2017.64,2143.35,2155.06,2449.20,599.48,590.18,38.63,0000 0000 0000 0000 000000
2018-04-29 04:28:25,0.14,4.04,0.00,25.70,28.55,31.31,13.77,47.35,1016.14,2017.87,2142.13,2154.19,2448.19,600.04,590.45,38.68,0000 0000 0000 0000 000000
2018-04-29 04:33:26,0.11,4.05,0.00,25.72,28.54,31.26,13.70,47.35,1016.15,2017.97,2140.83,2153.34,2447.16,599.68,590.06,38.73,0000 0000 0000 0000 000000
2018-04-29 04:38:27,0.10,4.05,0.00,25.68,28.52,31.22,13.77,47.37,1016.15,2017.99,2139.75,2152.56,2446.17,600.24,590.72,38.78,0000 0000 0000 0000 000000
2018-04-29 04:43:28,0.09,4.06,0.00,25.81,28.52,31.21,13.78,47.31,1016.15,2017.97,2138.65,2151.67,2445.15,600.30,590.46,38.83,0000 0000 0000 0000 000000
2018-04-29 04:48:30,0.11,4.06,0.00,25.89,28.52,31.19,13.73,47.37,1016.15,2017.98,2137.42,2150.75,2444.06,600.47,590.49,38.88,0000 0000 0000 0000 000000
2018-04-29 04:53:31,0.10,4.07,0.00,25.79,28.52,31.22,13.70,47.30,1016.14,2017.97,2136.12,2149.79,2442.91,599.57,589.78,38.94,0000 0000 0000 0000 000000
2018-04-29 04:58:32,0.13,4.08,0.00,25.87,28.52,31.22,13.66,47.30,1016.14,2017.97,2134.80,2148.79,2441.76,599.90,589.92,38.99,0000 0000 0000 0000 000000
2018-04-29 05:03:33,0.09,4.08,0.00,26.00,28.53,31.22,13.78,47.28,1016.14,2017.98,2133.40,2147.92,2440.59,600.28,590.08,39.04,0000 0000 0000 0000 000000
2018-04-29 05:08:35,0.12,4.09,0.00,25.99,28.55,31.24,13.69,47.34,1016.19,2017.98,2132.21,2146.86,2439.61,599.79,589.65,39.09,0000 0000 0000 0000 000000
2018-04-29 05:13:36,0.08,4.09,0.00,25.97,28.55,31.27,13.70,47.32,1016.33,2017.97,2131.07,2145.92,2438.53,599.51,589.47,39.14,0000 0000 0000 0000 000000
2018-04-29 05:18:38,0.11,4.10,0.00,26.13,28.57,31.26,13.74,47.31,1016.46,2017.95,2129.78,2144.94,2437.30,599.83,589.49,39.19,0000 0000 0000 0000 000000
2018-04-29 05:23:39,0.10,4.10,0.00,26.18,28.58,31.28,13.77,47.34,1016.60,2017.85,2128.60,2143.89,2436.11,600.27,589.95,39.24,0000 0000 0000 0000 000000
2018-04-29 05:28:40,0.14,4.11,0.00,26.10,28.60,31.31,13.75,47.39,1016.62,2017.61,2126.90,2142.70,2434.75,599.96,589.80,39.29,0000 0000 0000 0000 000000
2018-04-29 05:33:41,0.10,4.11,0.00,26.22,28.61,31.33,13.74,47.39,1016.62,2017.41,2125.48,2141.61,2433.54,600.22,589.86,39.34,0000 0000 0000 0000 000000
2018-04-29 05:38:43,0.11,4.12,0.00,26.30,28.63,31.35,13.71,47.31,1016.62,2017.19,2123.75,2140.44,2432.04,600.01,589.44,39.39,0000 0000 0000 0000 000000
2018-04-29 05:43:44,0.12,4.13,0.00,26.25,28.65,31.37,13.71,47.42,1016.62,2017.12,2122.29,2139.32,2430.78,599.67,589.14,39.44,0000 0000 0000 0000 000000
2018-04-29 05:48:45,0.13,4.13,0.00,26.29,28.67,31.39,13.74,47.37,1016.62,2017.05,2120.62,2138.19,2429.48,599.96,589.43,39.49,0000 0000 0000 0000 000000
2018-04-29 05:53:46,0.11,4.14,0.00,26.45,28.70,31.41,13.71,47.43,1016.62,2017.05,2119.31,2137.16,2428.25,600.21,589.28,39.54,0000 0000 0000 0000 000000
2018-04-29 05:58:47,0.10,4.15,0.00,26.48,28.71,31.43,13.73,47.41,1016.62,2017.01,2118.07,2136.17,2427.16,600.03,589.15,39.59,0000 0000 0000 0000 000000
2018-04-29 06:03:48,0.12,4.15,0.00,26.41,28.74,31.47,13.76,47.37,1016.63,2017.00,2116.77,2135.15,2425.91,599.96,589.21,39.64,0000 0000 0000 0000 000000
2018-04-29 06:08:49,0.12,4.16,0.00,26.54,28.76,31.50,13.62,47.21,1016.62,2017.00,2115.39,2134.09,2424.65,599.75,588.73,39.69,0000 0000 0000 0000 000000
2018-04-29 06:13:51,0.10,4.16,0.00,26.62,28.78,31.51,13.72,47.35,1016.62,2016.99,2114.25,2133.13,2423.54,600.08,588.95,39.74,0000 0000 0000 0000 000000
2018-04-29 06:18:52,0.13,4.17,0.00,26.61,28.81,31.55,13.66,47.26,1016.65,2016.97,2112.82,2131.97,2422.23,599.81,588.69,39.79,0000 0000 0000 0000 000000
2018-04-29 06:23:53,0.10,4.18,0.00,26.57,28.84,31.57,13.67,47.33,1016.67,2016.86,2111.59,2130.94,2421.08,599.85,588.83,39.84,0000 0000 0000 0000 000000
2018-04-29 06:28:54,0.06,4.18,0.00,26.73,28.86,31.60,13.63,47.28,1016.73,2016.40,2110.47,2129.87,2419.80,599.74,588.55,39.89,0000 0000 0000 0000 000000
2018-04-29 06:33:56,0.09,4.18,0.00,26.80,28.90,31.62,13.74,47.35,1016.86,2016.21,2109.02,2128.84,2418.59,600.17,588.84,39.94,0000 0000 0000 0000 000000
2018-04-29 06:38:57,0.12,4.19,0.00,26.79,28.93,31.66,13.65,47.33,1017.01,2016.06,2107.52,2127.83,2417.33,599.75,588.47,40.00,0000 0000 0000 0000 000000
2018-04-29 06:43:58,0.10,4.20,0.00,26.72,28.96,31.70,13.70,47.33,1017.04,2016.01,2106.45,2126.80,2416.23,600.12,589.02,40.05,0000 0000 0000 0000 000000
2018-04-29 06:48:59,0.11,4.20,0.00,26.85,28.99,31.74,13.74,47.24,1017.09,2016.00,2105.19,2125.82,2415.04,600.25,588.81,40.10,0000 0000 0000 0000 000000
2018-04-29 06:54:01,0.12,4.21,0.00,26.96,29.02,31.77,13.68,47.31,1017.10,2016.00,2103.96,2124.81,2413.81,600.02,588.58,40.15,0000 0000 0000 0000 000000
2018-04-29 06:59:02,0.13,4.21,0.00,27.01,29.06,31.80,13.61,47.27,1017.10,2016.00,2102.59,2123.76,2412.57,599.96,588.29,40.20,0000 0000 0000 0000 000000
2018-04-29 07:04:04,0.10,4.22,0.00,26.95,29.09,31.84,13.65,47.20,1017.10,2015.95,2101.41,2122.80,2411.45,599.93,588.44,40.25,0000 0000 0000 0000 000000
2018-04-29 07:09:05,0.08,4.23,0.00,27.01,29.12,31.88,13.65,47.25,1017.10,2015.79,2100.28,2121.71,2410.32,599.84,588.32,40.30,0000 0000 0000 0000 000000
2018-04-29 07:14:06,0.07,4.23,0.00,27.13,29.16,31.90,13.72,47.32,1017.10,2015.33,2098.91,2120.66,2409.11,600.40,588.52,40.35,0000 0000 0000 0000 000000
2018-04-29 07:19:07,0.12,4.23,0.00,27.12,29.20,31.94,13.72,47.33,1017.10,2015.05,2097.51,2119.63,2407.78,600.13,588.25,40.40,0000 0000 0000 0000 000000
2018-04-29 07:24:09,0.10,4.24,0.00,27.18,29.23,31.97,13.66,47.24,1017.11,2015.00,2096.19,2118.66,2406.65,599.93,587.99,40.45,0000 0000 0000 0000 000000
2018-04-29 07:29:10,0.10,4.24,0.00,27.15,29.27,32.01,13.70,47.35,1017.11,2014.98,2095.32,2117.67,2405.56,599.99,588.16,40.50,0000 0000 0000 0000 000000
2018-04-29 07:34:11,0.10,4.25,0.00,27.22,29.31,32.05,13.66,47.17,1017.12,2014.81,2093.86,2116.50,2404.21,600.49,588.47,40.55,0000 0000 0000 0000 000000
2018-04-29 07:39:12,0.06,4.25,0.00,27.30,29.35,32.08,13.66,47.21,1017.12,2014.33,2092.77,2115.53,2403.07,600.13,587.92,40.60,0000 0000 0000 0000 000000
2018-04-29 07:44:13,0.11,4.26,0.00,27.38,29.39,32.12,13.68,47.27,1017.16,2014.05,2091.49,2114.42,2401.70,599.93,587.71,40.65,0000 0000 0000 0000 000000
2018-04-29 07:49:15,0.13,4.27,0.00,27.40,29.43,32.15,13.69,47.24,1017.19,2014.00,2089.92,2113.19,2400.42,600.17,587.81,40.70,0000 0000 0000 0000 000000
2018-04-29 07:54:16,0.12,4.27,0.00,27.46,29.48,32.19,13.77,47.25,1017.30,2013.99,2088.43,2112.06,2399.11,600.17,587.58,40.75,0000 0000 0000 0000 000000
2018-04-29 07:59:17,0.11,4.28,0.00,27.45,29.52,32.24,13.69,47.25,1017.47,2013.98,2087.26,2111.04,2397.78,600.24,587.93,40.80,0000 0000 0000 0000 000000
2018-04-29 08:04:18,0.10,4.28,0.00,27.56,29.57,32.28,13.71,47.28,1017.56,2013.72,2085.74,2109.89,2396.41,600.31,587.90,40.85,0000 0000 0000 0000 000000
2018-04-29 08:09:20,0.08,4.29,0.00,27.60,29.62,32.32,13.60,47.43,1017.54,2013.13,2084.26,2108.69,2394.92,600.16,587.58,40.91,0000 0000 0000 0000 000000
2018-04-29 08:14:21,0.14,4.29,0.00,27.66,29.66,32.37,13.60,47.26,1017.58,2013.00,2082.74,2107.42,2393.51,599.63,586.99,40.96,0000 0000 0000 0000 000000
2018-04-29 08:19:23,0.14,4.30,0.00,27.68,29.71,32.41,13.59,47.24,1017.59,2013.00,2081.20,2106.10,2392.03,600.00,587.33,41.01,0000 0000 0000 0000 000000
2018-04-29 08:24:24,0.17,4.31,0.00,27.71,29.76,32.45,13.69,47.25,1017.59,2012.96,2079.42,2104.77,2390.53,600.22,587.48,41.06,0000 0000 0000 0000 000000
2018-04-29 08:29:25,0.06,4.32,0.00,27.74,29.79,32.48,13.66,47.29,1017.59,2012.63,2077.86,2103.65,2389.05,599.97,587.21,41.11,0000 0000 0000 0000 000000
2018-04-29 08:34:26,0.11,4.32,0.00,27.74,29.84,32.54,13.66,47.28,1017.59,2012.05,2076.36,2102.38,2387.67,599.91,587.22,41.16,0000 0000 0000 0000 000000
2018-04-29 08:39:27,0.13,4.33,0.00,27.75,29.88,32.59,13.68,47.25,1017.59,2012.00,2074.80,2101.09,2386.18,600.20,587.33,41.21,0000 0000 0000 0000 000000
2018-04-29 08:44:28,0.14,4.33,0.00,27.84,29.93,32.63,13.67,47.32,1017.60,2012.00,2073.45,2099.92,2384.81,600.14,587.13,41.26,0000 0000 0000 0000 000000
2018-04-29 08:49:30,0.14,4.34,0.00,27.91,29.97,32.66,13.66,47.19,1017.60,2011.90,2071.81,2098.66,2383.29,599.81,586.64,41.31,0000 0000 0000 0000 000000
2018-04-29 08:54:31,0.08,4.34,0.00,27.94,30.01,32.70,13.57,47.06,1017.60,2011.35,2070.22,2097.38,2381.83,599.63,586.53,41.36,0000 0000 0000 0000 000000
2018-04-29 08:59:32,0.11,4.35,0.00,27.95,30.05,32.74,13.57,47.28,1017.60,2011.05,2068.50,2096.12,2380.37,599.95,586.82,41.41,0000 0000 0000 0000 000000
2018-04-29 09:04:34,0.13,4.36,0.00,27.96,30.09,32.78,13.69,47.24,1017.61,2011.00,2066.93,2094.97,2378.97,599.89,586.74,41.46,0000 0000 0000 0000 000000
2018-04-29 09:09:35,0.13,4.36,0.00,27.95,30.13,32.82,13.66,47.35,1017.61,2011.00,2065.66,2093.89,2377.73,600.43,587.21,41.51,0000 0000 0000 0000 000000
2018-04-29 09:14:36,0.12,4.37,0.00,27.97,30.16,32.87,13.54,47.27,1017.66,2010.96,2064.41,2092.80,2376.51,599.54,586.38,41.56,0000 0000 0000 0000 000000
2018-04-29 09:19:38,0.08,4.38,0.00,28.01,30.20,32.91,13.73,47.25,1017.76,2010.65,2062.92,2091.71,2375.18,600.08,586.86,41.61,0000 0000 0000 0000 000000
2018-04-29 09:24:39,0.06,4.38,0.00,28.06,30.24,32.95,13.65,47.14,1017.80,2010.14,2061.73,2090.67,2373.92,600.09,586.75,41.66,0000 0000 0000 0000 000000
2018-04-29 09:29:40,0.13,4.38,0.00,28.07,30.28,32.99,13.62,47.31,1017.86,2010.00,2060.37,2089.52,2372.63,599.86,586.52,41.71,0000 0000 0000 0000 000000
2018-04-29 09:34:42,0.12,4.39,0.00,28.09,30.31,33.03,13.72,47.25,1017.93,2010.00,2058.88,2088.46,2371.37,600.27,586.95,41.76,0000 0000 0000 0000 000000
2018-04-29 09:39:43,0.12,4.40,0.00,28.11,30.35,33.06,13.61,47.19,1017.98,2010.00,2057.50,2087.33,2370.09,599.82,586.51,41.81,0000 0000 0000 0000 000000
2018-04-29 09:44:44,0.12,4.41,0.00,28.15,30.39,33.10,13.61,47.23,1018.08,2009.94,2056.14,2086.28,2368.78,600.13,586.67,41.86,0000 0000 0000 0000 000000
2018-04-29 09:49:45,0.08,4.41,0.00,28.16,30.42,33.14,13.64,47.22,1018.08,2009.54,2054.65,2085.14,2367.49,599.96,586.64,41.91,0000 0000 0000 0000 000000
2018-04-29 09:54:46,0.07,4.41,0.00,28.18,30.46,33.19,13.68,47.20,1018.08,2009.19,2053.38,2084.14,2366.45,600.12,586.75,41.97,0000 0000 0000 0000 000000
2018-04-29 09:59:48,0.10,4.42,0.00,28.20,30.50,33.22,13.67,47.24,1018.08,2009.04,2052.26,2083.15,2365.34,599.87,586.47,42.02,0000 0000 0000 0000 000000
2018-04-29 10:04:49,0.11,4.42,0.00,28.22,30.53,33.25,13.64,47.18,1018.08,2009.00,2051.11,2082.19,2364.26,600.00,586.58,42.07,0000 0000 0000 0000 000000
2018-04-29 10:09:51,0.13,4.43,0.00,28.22,30.57,33.30,13.71,47.26,1018.08,2008.99,2049.65,2081.06,2362.92,600.22,586.76,42.12,0000 0000 0000 0000 000000
2018-04-29 10:14:52,0.12,4.44,0.00,28.25,30.61,33.34,13.60,47.14,1018.08,2008.98,2048.40,2080.05,2361.71,600.15,586.64,42.17,0000 0000 0000 0000 000000
2018-04-29 10:19:53,0.09,4.44,0.00,28.27,30.64,33.38,13.66,47.23,1018.08,2008.81,2047.07,2078.98,2360.48,600.13,586.52,42.22,0000 0000 0000 0000 000000
2018-04-29 10:24:54,0.06,4.45,0.00,28.27,30.68,33.42,13.63,47.15,1018.09,2008.32,2045.99,2077.98,2359.26,599.68,586.26,42.27,0000 0000 0000 0000 000000
2018-04-29 10:29:55,0.06,4.45,0.00,28.30,30.71,33.47,13.64,47.08,1018.09,2008.04,2045.09,2077.09,2358.30,600.15,586.52,42.32,0000 0000 0000 0000 000000
2018-04-29 10:34:56,0.11,4.45,0.00,28.32,30.75,33.51,13.61,47.14,1018.09,2008.00,2044.02,2076.16,2357.23,600.00,586.35,42.37,0000 0000 0000 0000 000000
2018-04-29 10:39:57,0.13,4.46,0.00,28.31,30.78,33.56,13.70,47.13,1018.09,2008.00,2042.66,2075.17,2356.03,599.97,586.36,42.42,0000 0000 0000 0000 000000
2018-04-29 10:44:59,0.12,4.47,0.00,28.32,30.81,33.61,13.70,47.23,1018.09,2007.98,2041.31,2074.16,2354.81,599.76,586.28,42.47,0000 0000 0000 0000 000000
2018-04-29 10:50:00,0.10,4.47,0.00,28.34,30.85,33.66,13.59,47.10,1018.09,2007.91,2040.10,2073.16,2353.66,599.79,586.04,42.52,0000 0000 0000 0000 000000
2018-04-29 10:55:01,0.06,4.48,0.00,28.37,30.88,33.71,13.61,47.09,1018.09,2007.58,2039.05,2072.32,2352.65,600.25,586.52,42.57,0000 0000 0000 0000 000000
2018-04-29 11:00:03,0.06,4.48,0.00,28.40,30.92,33.75,13.63,47.04,1018.10,2007.19,2038.00,2071.49,2351.75,599.87,586.23,42.62,0000 0000 0000 0000 000000
2018-04-29 11:05:04,0.10,4.48,0.00,28.44,30.95,33.80,13.64,47.13,1018.09,2007.01,2036.91,2070.55,2350.66,600.07,586.29,42.67,0000 0000 0000 0000 000000
2018-04-29 11:10:05,0.10,4.49,0.00,28.49,30.98,33.84,13.64,47.10,1018.08,2007.00,2035.83,2069.70,2349.61,599.88,585.96,42.72,0000 0000 0000 0000 000000
2018-04-29 11:15:06,0.08,4.49,0.00,28.50,31.01,33.87,13.62,47.02,1018.09,2007.00,2034.78,2068.87,2348.63,600.08,586.11,42.77,0000 0000 0000 0000 000000
2018-04-29 11:20:08,0.13,4.50,0.00,28.52,31.04,33.89,13.64,47.02,1018.08,2006.98,2033.60,2067.89,2347.55,600.09,586.11,42.82,0000 0000 0000 0000 000000
2018-04-29 11:25:09,0.07,4.51,0.00,28.49,31.07,33.92,13.66,47.08,1018.08,2006.77,2032.30,2066.97,2346.43,600.20,586.29,42.88,0000 0000 0000 0000 000000
2018-04-29 11:30:10,0.06,4.51,0.00,28.48,31.09,33.94,13.69,47.03,1018.08,2006.27,2031.17,2066.07,2345.38,599.90,585.96,42.93,0000 0000 0000 0000 000000
2018-04-29 11:35:11,0.11,4.51,0.00,28.46,31.11,33.97,13.69,46.98,1018.10,2006.08,2029.76,2065.13,2344.27,600.38,586.48,42.98,0000 0000 0000 0000 000000
2018-04-29 11:40:13,0.11,4.52,0.00,28.43,31.12,33.98,13.68,47.02,1018.09,2006.01,2028.45,2064.19,2343.11,600.01,586.09,43.03,0000 0000 0000 0000 000000
2018-04-29 11:45:14,0.10,4.52,0.00,28.39,31.15,34.00,13.63,47.13,1018.08,2006.00,2027.45,2063.30,2342.10,600.11,586.26,43.08,0000 0000 0000 0000 000000
2018-04-29 11:50:15,0.08,4.53,0.00,28.36,31.15,34.00,13.62,47.10,1018.08,2006.00,2026.74,2062.69,2341.32,600.09,586.41,43.13,0000 0000 0000 0000 000000
2018-04-29 11:55:17,0.13,4.53,0.00,28.31,31.17,34.00,13.58,46.92,1018.08,2006.00,2025.30,2061.65,2340.20,600.08,586.45,43.18,0000 0000 0000 0000 000000
2018-04-29 12:00:18,0.06,4.54,0.00,28.24,31.17,34.01,13.72,47.08,1018.09,2005.99,2024.23,2061.01,2339.19,600.00,586.56,43.23,0000 0000 0000 0000 000000
2018-04-29 12:05:19,0.08,4.54,0.00,28.17,31.17,34.05,13.71,47.13,1018.08,2005.98,2023.94,2060.36,2338.68,599.99,586.60,43.28,0000 0000 0000 0000 000000
2018-04-29 12:10:20,0.07,4.55,0.00,28.11,31.17,34.02,13.74,47.12,1018.08,2005.98,2022.94,2059.55,2337.93,600.20,587.05,43.33,0000 0000 0000 0000 000000
2018-04-29 12:15:22,0.16,4.55,0.00,28.06,31.17,33.99,13.63,47.14,1018.08,2005.94,2021.46,2058.63,2336.71,600.07,586.88,43.38,0000 0000 0000 0000 000000
2018-04-29 12:20:23,0.10,4.56,0.00,28.01,31.15,33.96,13.72,47.10,1018.08,2005.99,2019.93,2057.83,2335.57,600.04,587.04,43.43,0000 0000 0000 0000 000000
2018-04-29 12:25:25,0.10,4.56,0.00,27.96,31.15,33.96,13.63,47.13,1018.08,2005.98,2018.79,2057.01,2334.69,599.78,586.94,43.48,0000 0000 0000 0000 000000
2018-04-29 12:30:26,0.11,4.57,0.00,27.92,31.12,33.93,13.72,47.17,1018.08,2005.98,2017.61,2056.17,2333.73,599.92,587.10,43.53,0000 0000 0000 0000 000000
2018-04-29 12:35:27,-0.00,4.57,0.00,27.89,31.11,33.92,13.67,47.03,1018.08,2005.99,2017.55,2055.91,2333.29,599.96,587.29,43.58,0000 0000 0000 0000 000000
2018-04-29 12:40:29,0.11,4.57,0.00,27.84,31.09,33.89,13.74,47.23,1018.08,2005.97,2016.69,2055.12,2332.59,599.94,587.23,43.63,0000 0000 0000 0000 000000
2018-04-29 12:45:30,0.07,4.58,0.00,27.80,31.06,33.88,13.73,47.19,1018.08,2005.99,2015.82,2054.39,2331.83,600.01,587.25,43.68,0000 0000 0000 0000 000000
2018-04-29 12:50:32,0.14,4.59,0.00,27.76,31.04,33.86,13.65,47.17,1018.07,2005.99,2014.22,2053.45,2330.55,599.74,587.15,43.74,0000 0000 0000 0000 000000
2018-04-29 12:55:33,0.04,4.59,0.00,27.70,31.01,33.85,13.81,47.23,1018.07,2005.99,2013.52,2052.99,2330.01,600.36,587.85,43.79,0000 0000 0000 0000 000000